Temp
78 78 77 77 78 77 76 76 77 76 76 76 77 77 78 78 78 76 75 77 77 76 75 75 75 75 78 79 79 80 79 78 73 77 80 79 76 77 79 76 78 78 81
79 78 77 76 76 74 74 75 75 75 76 76 77 77 78 78 78 76 75 76 75 74 75 75 75 79 73 73 76 72 74 75 74 68 73 75 74 75 76 75 79 83 83
78 77 76 74 74 72 72 72 73 73 74 75 75 75 76 77 77 77 77 77 76 75 75 74 74 73 71 74 74 75 77 77 76 74 73 77 77 76 74 75 76 76 80
76 75 73 72 72 72 71 71 71 72 72 72 72 73 74 75 76 76 76 75 75 76 75 75 74 73 72 71 71 71 72 72 72 72 72 73 74 75 74 73 73 75 77
74 73 71 72 72 72 71 71 71 70 70 71 70 71 71 72 74 72 72 72 70 71 72 74 74 72 68 69 73 71 70 69 72 72 72 73 73 71 70 74 69 69 74
72 71 72 72 72 71 70 70 69 69 69 68 68 68 68 70 59 51 54 62 63 65 65 68 70 67 68 59 59 61 66 67 66 69 70 69 67 67 70 68 67 65 63
70 70 71 71 70 70 70 69 67 66 66 65 65 65 63 62 53 50 50 58 57 58 60 62 64 70 66 71 63 57 58 57 58 66 64 65 66 67 66 64 65 65 65
68 69 70 70 69 68 67 65 64 64 61 59 57 57 56 55 47 46 46 47 47 49 51 54 56 58 60 61 63 63 66 65 61 65 66 66 68 69 67 65 64 62 62
66 67 68 68 65 64 62 60 58 55 54 54 53 48 45 47 46 44 44 45 45 46 48 49 50 52 51 47 53 53 57 61 58 52 52 54 53 52 54 65 62 57 58
65 65 65 64 61 57 54 52 52 51 48 45 45 46 48 49 47 45 45 47 44 44 45 47 47 47 45 45 49 51 52 56 56 58 63 60 53 61 48 61 62 56 59
62 61 58 56 52 51 50 48 44 41 40 40 42 44 46 48 48 44 43 44 43 44 44 44 46 45 44 44 45 50 51 59 58 59 64 67 69 68 67 67 65 62 57
54 52 50 50 49 45 40 39 40 39 38 38 39 41 45 47 46 45 42 42 45 43 44 46 47 44 42 42 44 47 45 47 60 62 63 62 64 63 65 65 65 61 62
48 46 46 42 39 39 39 39 38 38 37 38 40 40 41 45 49 45 43 42 42 43 47 46 43 43 42 44 42 44 43 58 60 59 61 62 60 63 64 63 62 61 64
43 42 37 37 39 40 41 39 38 37 38 38 39 39 41 44 46 46 46 47 43 43 43 44 44 45 44 47 49 48 58 60 59 60 60 63 62 60 63 63 57 56 56
35 35 37 37 37 38 39 39 38 39 38 37 38 39 38 39 43 42 42 42 41 40 39 43 46 47 49 54 58 60 59 57 53 55 58 61 58 61 62 60 59 54 54
34 36 35 34 35 36 36 36 39 39 39 38 38 37 39 39 39 39 39 39 38 38 39 41 46 50 53 56 56 59 59 52 54 57 58 60 60 62 58 56 57 56 55
31 32 33 34 34 35 35 34 33 38 40 40 39 38 38 38 38 38 38 37 37 37 39 44 49 53 56 54 58 61 60 59 60 59 61 60 60 60 53 55 56 58 58
32 34 32 33 34 35 35 35 35 35 36 38 41 40 39 38 37 37 36 36 38 40 40 45 52 55 55 55 55 57 62 60 59 59 57 59 59 58 58 61 61 64 65
32 32 34 34 34 35 35 36 38 39 40 41 43 41 39 38 37 37 37 38 40 45 50 49 52 54 55 60 61 63 62 57 59 58 58 60 59 61 64 66 65 54 55
33 33 34 35 35 36 38 39 39 39 39 40 41 40 41 40 39 39 39 39 44 49 47 50 57 56 55 60 58 58 57 58 56 58 62 60 61 62 62 61 63 72 73
34 35 34 36 37 38 38 37 38 38 38 38 41 42 34 39 40 41 41 44 49 49 55 55 56 56 55 55 55 56 55 56 59 58 57 57 62 60 63 69 69 73 73
34 34 34 35 37 38 37 37 37 37 37 38 40 43 35 45 42 44 44 47 49 53 54 54 57 57 56 55 56 57 57 58 60 57 55 57 63 68 72 75 66 69 68
34 34 33 33 35 35 35 35 36 36 36 37 38 41 43 45 45 44 48 49 52 56 54 53 59 58 57 56 58 58 58 64 63 65 61 70 75 73 73 62 71 70 67
34 34 33 32 32 33 33 33 33 34 34 36 37 38 43 45 47 45 48 51 54 50 53 55 58 61 62 59 59 59 58 59 59 58 62 76 76 71 75 71 70 70 68
34 33 33 32 31 32 32 32 33 33 34 34 35 37 39 48 47 47 49 51 53 52 53 56 57 61 63 64 65 62 46 38 52 45 65 78 77 76 75 73 69 66 69
33 33 32 31 30 31 31 31 31 32 32 33 34 35 37 41 48 49 50 52 55 55 57 60 62 63 65 66 59 43 37 38 45 39 55 77 77 77 76 74 71 68 71
MSLP
1009.61 1009.66 1009.78 1009.77 1009.84 1009.93 1009.98 1009.94 1009.79 1009.73 1009.55 1009.20 1008.94 1008.64 1008.59 1008.48 1008.37 1008.42 1008.61 1008.33 1008.01 1007.84 1008.07 1008.10 1008.04 1008.13 1007.85 1007.74 1007.62 1007.26 1006.96 1006.75 1006.16 1005.83 1005.70 1005.64 1005.93 1005.82 1005.68 1005.65 1005.77 1005.41 1004.86
1009.63 1009.63 1009.75 1010.07 1010.08 1010.04 1009.96 1009.88 1009.67 1009.46 1009.25 1008.91 1008.65 1008.32 1008.03 1007.78 1007.60 1007.52 1007.73 1007.62 1007.21 1007.13 1007.05 1007.13 1007.14 1007.07 1007.12 1007.28 1007.12 1007.07 1006.96 1006.62 1006.34 1005.78 1005.71 1005.41 1005.41 1005.54 1005.39 1005.18 1004.87 1004.31 1003.91
1009.84 1009.89 1009.85 1009.85 1009.88 1009.84 1009.81 1009.68 1009.46 1009.24 1009.01 1008.71 1008.38 1007.95 1007.62 1007.32 1007.07 1006.87 1006.71 1006.44 1006.19 1006.08 1006.10 1006.10 1006.00 1006.23 1006.34 1006.27 1006.20 1005.98 1005.90 1005.77 1005.64 1005.21 1004.76 1004.74 1004.58 1005.00 1004.98 1004.57 1004.07 1003.95 1003.67
1009.78 1009.77 1009.66 1009.70 1009.70 1009.57 1009.39 1009.24 1009.03 1008.85 1008.57 1008.26 1007.93 1007.51 1007.19 1006.89 1006.60 1006.35 1006.10 1005.78 1005.43 1005.11 1004.99 1005.00 1005.08 1005.15 1005.19 1005.54 1005.75 1005.66 1005.56 1005.46 1005.46 1005.17 1004.66 1004.34 1004.09 1004.09 1004.43 1004.11 1003.40 1003.19 1002.68
1009.81 1009.72 1009.61 1009.51 1009.24 1008.98 1008.76 1008.57 1008.47 1008.37 1008.09 1007.83 1007.49 1007.16 1006.93 1006.72 1006.44 1006.12 1005.92 1005.52 1005.20 1004.77 1004.55 1004.32 1003.93 1003.95 1004.15 1004.27 1004.42 1004.54 1004.77 1004.85 1004.53 1004.37 1003.97 1003.58 1003.22 1003.58 1003.83 1003.56 1003.40 1003.13 1002.29
1009.74 1009.54 1009.29 1009.00 1008.69 1008.39 1008.16 1008.00 1007.81 1007.61 1007.43 1007.31 1007.05 1006.78 1006.51 1006.30 1006.19 1006.61 1006.87 1006.50 1005.92 1005.35 1004.79 1004.37 1003.92 1003.37 1003.47 1003.77 1003.72 1003.78 1003.95 1004.24 1004.23 1004.12 1003.60 1003.32 1003.46 1004.04 1004.12 1003.84 1003.20 1003.04 1002.17
1009.54 1009.24 1008.86 1008.52 1008.16 1007.85 1007.55 1007.39 1007.28 1007.14 1007.08 1006.91 1006.68 1006.46 1006.36 1006.50 1006.57 1006.71 1006.82 1006.49 1006.26 1005.91 1005.30 1004.69 1004.05 1003.38 1003.09 1002.76 1002.48 1002.75 1002.93 1003.13 1003.43 1003.82 1003.86 1003.70 1003.52 1003.77 1004.13 1003.73 1003.17 1002.84 1002.31
1009.35 1008.93 1008.61 1008.26 1007.86 1007.67 1007.45 1007.39 1007.30 1007.21 1006.94 1007.06 1007.08 1006.99 1006.77 1006.83 1007.18 1007.18 1007.05 1006.86 1006.50 1006.11 1005.64 1004.97 1004.46 1003.97 1003.70 1003.40 1002.97 1002.60 1002.13 1001.92 1002.53 1002.93 1003.06 1003.17 1003.32 1003.32 1003.29 1003.28 1003.19 1003.23 1002.60
1009.06 1008.75 1008.50 1008.26 1008.02 1007.91 1007.75 1007.67 1007.76 1007.87 1007.68 1007.47 1007.38 1007.40 1007.27 1006.71 1006.49 1006.48 1006.60 1006.35 1005.85 1005.38 1005.11 1004.89 1004.62 1003.97 1003.69 1003.69 1003.65 1003.16 1002.39 1001.81 1001.89 1002.23 1003.10 1002.80 1002.80 1002.79 1002.66 1002.93 1002.92 1003.14 1002.52
1008.92 1008.79 1008.76 1008.56 1008.50 1008.54 1008.66 1008.59 1008.40 1008.19 1008.02 1007.97 1007.34 1006.94 1006.34 1005.64 1005.39 1005.35 1005.38 1005.10 1004.80 1004.41 1004.29 1003.85 1003.46 1003.34 1003.25 1003.27 1003.20 1002.86 1002.22 1001.58 1001.65 1002.18 1002.41 1001.86 1001.73 1001.67 1001.80 1002.45 1002.73 1002.44 1001.74
1009.15 1009.13 1009.31 1009.43 1009.51 1009.31 1008.99 1008.87 1008.79 1008.28 1007.91 1007.36 1006.83 1006.14 1005.59 1005.11 1004.57 1004.45 1004.56 1004.51 1004.01 1003.55 1003.23 1002.94 1002.64 1002.49 1002.36 1002.18 1002.11 1001.92 1001.58 1001.03 1001.03 1001.57 1001.32 1000.73 1000.21 1000.30 1000.90 1001.03 1001.64 1002.16 1002.03
1009.89 1010.09 1010.04 1009.90 1009.68 1009.80 1009.45 1008.72 1008.38 1007.93 1007.32 1006.59 1006.08 1005.22 1004.59 1004.18 1003.68 1003.38 1003.37 1003.25 1002.95 1002.75 1002.20 1001.90 1001.74 1001.61 1001.42 1000.91 1000.67 1000.37 1000.87 1000.89 1000.46 1000.18 999.87 999.79 999.45 999.76 1000.08 1000.37 1000.98 1001.14 1001.26
1010.63 1010.50 1010.29 1010.30 1010.00 1009.55 1008.80 1008.16 1007.65 1007.21 1006.66 1005.85 1005.26 1004.48 1003.71 1003.20 1002.49 1002.11 1002.05 1001.87 1001.92 1001.97 1001.34 1001.00 1000.96 1000.81 1000.60 1000.15 999.93 999.51 1000.03 999.94 999.65 999.53 999.20 999.05 999.42 999.39 999.63 1000.14 1000.68 1000.85 1000.67
1010.99 1010.80 1010.73 1010.15 1009.34 1008.84 1008.21 1007.67 1007.09 1006.44 1005.83 1005.15 1004.46 1003.81 1003.07 1002.31 1001.83 1001.58 1001.37 1001.12 1001.21 1001.22 1000.58 1000.02 999.98 999.93 999.87 999.37 999.03 998.90 998.72 998.78 998.91 998.71 998.69 998.40 998.93 999.00 999.08 999.61 1000.11 1000.41 1001.00
1011.65 1011.03 1010.39 1009.78 1009.12 1008.26 1007.59 1006.95 1006.33 1005.54 1005.26 1004.60 1003.82 1003.30 1002.67 1001.81 1001.31 1001.27 1001.28 1001.16 1001.08 1000.99 1000.74 999.74 998.80 998.87 998.63 998.11 997.60 997.38 997.43 997.90 998.37 998.49 998.15 997.79 998.34 998.41 998.55 999.10 999.57 999.98 1001.46
1011.29 1010.72 1010.15 1009.46 1008.67 1007.91 1006.98 1005.72 1005.35 1004.59 1003.90 1003.47 1002.93 1002.53 1001.75 1001.27 1000.91 1000.91 1000.91 1000.81 1000.80 1000.86 1000.49 999.45 998.07 997.63 997.11 996.49 996.29 995.81 996.24 997.09 997.35 997.34 997.33 997.41 997.56 997.78 998.60 999.17 999.79 1000.04 1001.15
1011.37 1010.58 1009.82 1009.07 1008.23 1007.32 1006.48 1005.72 1004.60 1002.85 1002.76 1002.07 1001.40 1000.85 1000.46 1000.11 999.91 999.97 1000.11 1000.13 1000.18 1000.37 999.95 998.62 997.30 996.38 995.78 995.82 995.38 995.00 995.26 995.86 996.31 996.47 996.60 996.78 997.18 997.73 998.70 999.16 999.66 1000.11 1000.29
1010.94 1010.19 1009.46 1008.62 1007.76 1006.87 1006.06 1005.14 1004.35 1003.38 1002.00 1000.60 999.97 999.63 999.17 999.12 999.08 999.18 999.35 999.64 999.56 999.40 999.06 997.92 996.75 995.62 995.00 995.03 994.51 994.58 994.42 995.02 995.42 995.65 996.10 996.37 996.75 997.26 997.96 998.36 998.76 998.91 998.92
1010.47 1009.64 1008.93 1008.08 1007.21 1006.33 1005.40 1004.42 1003.42 1002.39 1001.42 1000.38 999.33 999.00 998.86 998.66 998.53 998.60 998.78 998.75 998.50 997.88 997.08 996.84 995.95 995.23 994.88 994.10 993.65 993.53 993.93 994.46 994.79 995.34 995.73 995.90 996.15 996.16 995.99 996.32 996.48 996.86 997.93
1009.89 1009.17 1008.39 1007.48 1006.54 1005.58 1004.65 1003.76 1002.83 1002.04 1001.15 1000.22 999.36 998.96 998.71 998.33 998.12 998.06 998.13 998.10 997.72 996.78 996.81 995.88 994.71 994.42 993.94 993.73 993.57 993.52 993.85 994.23 994.68 994.97 995.29 995.29 995.69 995.67 995.48 995.58 996.40 995.65 996.40
1009.47 1008.62 1007.88 1006.95 1006.10 1005.26 1004.43 1003.72 1002.91 1002.03 1001.23 1000.28 999.33 998.84 998.80 998.51 997.98 997.59 997.59 997.40 996.81 996.60 995.68 995.03 994.44 993.61 993.55 993.70 993.58 993.59 993.91 994.25 994.29 994.50 995.06 994.79 995.12 995.43 994.36 993.96 994.35 995.04 995.76
1009.27 1008.46 1007.69 1006.89 1006.00 1005.16 1004.58 1003.81 1003.05 1002.22 1001.38 1000.42 999.47 998.72 998.55 998.05 997.81 997.27 997.19 996.90 996.63 996.14 995.78 994.98 994.21 993.63 993.58 993.73 993.76 993.74 993.93 993.95 994.30 994.51 994.97 994.01 993.78 993.53 992.86 993.41 994.56 995.19 996.19
1009.28 1008.55 1007.75 1007.00 1006.28 1005.54 1004.76 1004.05 1003.27 1002.51 1001.67 1000.74 999.87 998.90 998.37 997.81 997.55 997.27 996.72 996.59 996.29 995.76 995.80 995.22 994.43 993.88 993.74 993.95 993.96 993.99 994.38 994.28 994.49 994.29 994.25 993.46 992.35 992.49 992.92 994.25 994.64 995.06 996.11
1009.45 1008.63 1008.07 1007.39 1006.64 1005.90 1005.16 1004.42 1003.71 1002.93 1002.12 1001.19 1000.27 999.42 998.43 997.95 997.43 997.24 996.85 996.35 995.87 996.36 995.94 995.15 994.24 993.68 993.65 993.97 994.36 994.83 994.89 994.77 994.89 995.10 994.26 992.72 992.67 993.07 993.47 993.86 994.51 995.34 996.06
1009.77 1009.16 1008.46 1007.76 1007.09 1006.34 1005.54 1004.79 1004.12 1003.39 1002.59 1001.77 1000.89 1000.00 999.08 997.98 997.64 997.31 996.84 996.48 996.12 996.32 995.97 995.34 994.43 993.76 993.76 993.96 994.42 994.76 995.67 995.27 994.29 994.25 993.17 992.50 992.88 993.63 993.87 994.25 994.92 995.75 996.49
1010.29 1009.62 1008.97 1008.31 1007.59 1006.92 1006.18 1005.40 1004.65 1003.92 1003.20 1002.40 1001.60 1000.76 999.98 998.97 997.93 997.36 996.93 996.42 995.96 995.98 995.97 995.50 994.75 994.56 994.44 994.42 994.85 995.29 995.42 995.36 994.78 994.89 994.69 992.88 993.13 993.78 993.94 994.46 995.09 996.08 996.87
Wind_Speed
5 5 5 6 7 6 7 8 8 9 10 11 11 11 13 13 13 12 14 15 15 13 14 14 15 13 11 11 10 10 10 10 12 10 10 8 10 11 12 9 11 12 10
6 7 7 7 8 8 9 10 10 12 12 13 13 14 15 16 14 15 17 17 18 18 18 18 18 13 16 15 12 14 13 11 11 14 12 11 11 12 13 13 11 12 12
7 9 9 10 10 11 11 12 13 14 14 15 16 17 17 17 16 16 17 18 19 19 19 20 19 18 17 14 14 12 11 9 10 11 10 10 9 9 12 13 12 11 13
10 11 12 12 13 13 13 14 14 15 16 16 16 18 19 19 19 18 18 18 18 18 19 19 20 20 19 18 16 16 14 13 13 12 12 11 11 8 9 11 10 10 12
12 13 14 14 14 15 15 15 15 15 16 17 18 18 18 16 15 17 16 17 17 18 19 19 19 20 23 21 14 16 17 15 13 13 13 11 10 9 11 9 9 10 13
14 15 16 16 16 16 15 15 15 16 16 17 18 19 18 14 15 8 10 15 19 19 18 18 18 18 22 17 18 21 19 15 15 13 12 12 11 10 11 12 10 10 9
16 17 17 17 17 17 17 17 16 15 14 16 18 18 18 17 16 15 13 15 17 18 19 17 18 17 18 19 17 22 22 21 21 16 15 14 13 11 13 13 13 10 11
17 17 17 18 18 18 17 17 15 15 15 15 15 15 15 13 19 21 13 11 12 13 14 16 17 18 18 18 19 18 17 19 14 12 16 14 14 14 14 12 13 8 12
17 17 17 18 18 18 18 18 16 14 13 15 16 16 16 18 18 13 16 16 16 18 16 17 18 18 17 14 15 16 16 12 6 6 15 15 15 15 12 9 11 5 9
17 18 18 18 18 19 18 16 14 15 16 13 15 15 19 18 20 18 17 10 13 13 14 15 15 14 16 19 17 16 17 11 5 8 16 12 12 12 14 12 9 9 7
17 18 19 18 18 16 14 15 16 13 13 14 15 16 17 17 19 19 18 13 12 12 11 11 11 19 23 27 26 16 13 15 14 12 14 12 11 11 11 11 10 9 5
18 18 18 17 13 13 16 14 14 13 14 14 14 14 12 15 18 19 20 23 20 13 13 10 11 18 16 17 18 18 16 13 9 11 11 10 11 9 10 7 7 8 5
17 18 17 16 14 13 13 14 12 11 11 12 11 11 11 11 11 12 14 16 16 12 12 15 20 18 17 14 13 14 16 12 10 11 13 11 10 10 8 6 5 6 7
17 18 14 14 15 14 11 9 10 10 10 10 10 10 10 11 10 8 7 6 6 7 10 13 16 17 13 14 8 8 10 12 12 12 12 10 9 7 7 7 4 4 4
13 13 14 11 12 13 13 10 10 12 11 11 11 10 11 11 9 8 6 4 4 7 12 9 7 9 10 12 11 12 9 9 8 11 13 9 8 8 6 6 6 10 6
13 11 11 11 10 11 11 12 14 20 24 23 26 22 14 21 23 19 17 18 16 10 7 9 7 9 11 11 9 10 8 8 9 10 10 9 10 8 7 6 6 9 9
13 13 11 13 11 11 10 10 12 15 17 19 21 23 24 24 23 18 14 16 15 9 8 9 9 9 8 7 11 10 9 10 12 9 10 8 9 8 7 8 8 9 14
14 21 11 10 10 10 10 10 10 10 13 13 10 14 12 15 16 14 14 11 8 8 9 10 11 12 4 9 6 8 10 8 9 9 8 9 8 9 11 12 14 15 12
11 10 10 10 10 12 11 11 10 10 10 11 7 8 6 10 11 10 9 6 7 9 9 9 10 9 9 7 8 9 8 7 8 7 8 10 10 12 14 14 15 12 10
10 18 15 10 10 10 9 9 9 9 9 10 7 7 6 4 3 3 4 6 8 5 7 11 9 8 3 6 6 6 5 6 5 9 12 11 12 10 10 13 12 10 9
9 10 12 9 9 9 8 9 9 9 9 9 7 5 4 4 5 3 4 6 7 6 7 7 10 3 3 3 3 3 4 6 7 7 7 6 10 16 14 10 8 10 9
8 9 9 9 9 8 9 9 9 9 9 9 9 5 4 5 5 4 4 5 5 6 6 7 8 1 2 2 2 4 5 5 10 12 12 12 11 10 6 9 6 6 8
9 9 9 9 9 12 9 9 9 9 10 9 9 7 5 5 2 5 4 4 5 5 5 8 8 0 2 3 3 4 2 7 6 12 13 15 8 4 5 10 6 8 5
9 10 10 9 9 9 9 10 9 11 10 10 9 9 5 5 4 4 5 5 4 2 5 7 8 4 4 4 3 3 2 5 6 7 23 8 6 6 3 5 5 7 7
9 10 10 10 10 10 11 10 10 10 10 9 9 9 10 3 3 4 5 6 3 3 5 6 7 5 3 1 5 6 7 3 7 8 7 10 10 9 7 5 5 8 10
11 11 10 9 10 11 10 11 11 11 10 10 10 9 10 9 7 3 4 5 4 4 4 6 5 6 3 1 9 8 7 10 12 7 9 6 7 7 5 6 10 9 13
Wind_Direction
5 353 341 333 320 307 303 293 292 290 287 280 276 272 263 259 255 252 256 263 264 257 239 246 250 257 254 259 269 268 267 270 280 286 298 293 293 290 292 278 248 256 256
331 324 318 302 299 295 292 290 288 283 279 275 273 270 267 263 258 249 246 251 249 247 250 249 250 240 242 242 248 256 263 272 281 283 279 277 268 281 276 278 276 275 276
317 304 302 301 295 289 285 284 283 282 279 278 277 274 272 268 266 262 260 259 255 254 252 251 249 246 251 253 253 256 259 262 270 275 283 294 289 287 292 282 263 251 256
307 302 301 297 293 289 287 283 281 280 281 280 278 277 275 274 272 270 267 265 261 259 257 253 250 248 250 248 254 253 257 257 261 265 268 266 263 270 276 279 281 262 243
304 300 297 292 287 286 286 286 286 284 281 282 281 279 278 278 274 273 277 279 278 273 268 268 260 248 241 245 246 240 245 253 248 253 256 267 269 282 279 279 283 279 282
303 296 295 293 290 286 284 284 279 278 278 281 280 280 278 276 283 0 334 307 295 287 284 283 285 265 256 255 245 243 249 254 258 270 277 271 282 278 278 279 280 276 267
298 295 294 294 291 288 288 290 289 289 288 284 282 284 291 295 307 315 320 300 293 289 287 283 281 273 275 272 249 230 234 231 231 248 257 264 272 277 279 277 269 266 270
297 296 296 295 296 298 298 295 294 291 297 301 297 291 288 294 304 298 299 291 282 281 284 283 276 274 280 288 285 291 272 244 223 231 238 246 254 255 254 264 275 301 295
298 299 302 305 304 302 300 303 309 304 295 290 297 296 285 277 266 265 272 274 269 269 270 270 274 275 269 270 278 282 273 260 236 216 264 245 235 249 252 275 275 262 247
305 309 307 308 311 311 310 303 297 302 297 286 277 272 275 273 269 265 253 256 263 262 259 260 265 273 279 275 264 257 261 236 227 251 239 242 229 245 232 241 259 253 303
313 320 320 316 306 302 301 309 299 288 283 277 278 278 274 277 277 274 275 268 260 263 260 259 252 249 248 252 245 238 259 241 235 247 263 257 251 241 256 231 230 226 254
329 316 308 305 310 311 292 288 283 281 279 278 277 274 271 272 271 266 255 248 254 257 256 254 263 261 267 254 238 217 231 260 248 241 246 253 254 238 240 238 223 229 209
314 308 308 312 294 284 286 286 286 279 272 274 271 272 275 273 272 263 258 249 237 252 258 257 254 258 272 289 227 198 211 231 241 246 244 243 246 238 211 203 212 221 277
311 314 301 293 298 296 288 282 276 276 274 272 272 272 275 275 275 272 273 282 228 295 341 256 241 238 245 271 262 229 223 229 232 237 250 233 236 212 190 189 156 91 276
307 294 296 297 296 297 290 285 279 274 268 275 274 274 276 274 269 272 264 276 308 311 318 298 226 222 237 239 233 232 207 207 223 235 244 205 210 187 153 165 158 117 269
300 304 299 298 296 290 291 294 275 267 270 263 259 256 265 262 269 267 267 274 281 292 295 287 251 231 234 236 241 232 209 206 216 223 213 212 196 184 151 142 157 160 201
300 298 297 296 291 293 294 293 300 305 282 269 265 261 255 255 262 257 250 254 256 248 258 277 277 262 232 239 238 221 219 205 211 218 233 198 184 169 155 164 197 203 220
296 298 295 292 292 292 292 290 287 286 296 303 281 264 257 255 258 258 245 238 247 228 238 253 258 265 258 264 207 215 226 211 213 203 203 185 171 172 172 194 202 206 194
302 297 299 296 292 290 289 287 284 288 295 298 309 313 288 273 267 251 237 224 230 231 231 254 255 257 263 267 260 220 220 212 208 183 200 178 174 194 200 197 197 179 173
302 301 299 295 297 296 300 304 308 305 307 310 310 316 316 300 276 212 203 212 234 240 251 256 247 251 247 275 238 221 193 201 198 194 186 188 192 218 206 177 222 154 153
310 308 308 300 309 309 311 319 312 317 315 316 309 319 316 296 304 253 227 229 229 235 254 287 302 180 258 188 203 194 155 172 191 111 114 237 217 196 221 166 128 143 171
315 320 322 320 316 323 325 316 321 320 320 319 317 323 287 279 297 293 251 241 245 254 277 300 315 315 49 46 203 176 157 160 131 132 180 233 235 177 179 137 128 150 129
330 331 329 329 329 330 330 330 327 329 328 325 326 319 326 311 303 315 284 235 251 265 295 295 321 118 60 71 107 66 77 205 210 193 200 226 171 127 123 132 202 126 150
336 343 342 339 338 334 334 334 333 332 334 332 332 330 303 317 328 259 303 307 244 265 287 303 302 320 100 77 84 121 14 340 306 298 271 162 171 136 142 105 115 126 108
354 350 351 347 343 341 337 339 338 338 339 337 336 335 332 353 348 315 296 299 249 229 285 290 302 325 68 359 70 41 78 295 321 305 289 155 148 167 158 131 128 118 121
355 355 355 350 348 346 344 342 341 340 341 339 337 336 333 333 327 331 307 290 278 253 258 276 278 335 58 346 40 17 12 19 324 332 305 166 145 168 160 147 122 119 126